Date,TemperatureHighF,TemperatureAvgF,TemperatureLowF,DewpointHighF,DewpointAvgF,DewpointLowF,HumidityHigh,HumidityAvg,HumidityLow,PressureMaxIn,PressureMinIn,WindSpeedMaxMPH,WindSpeedAvgMPH,GustSpeedMaxMPH,PrecipitationSumIn
2013-10-1,66.0,63.3,61.0,64.0,62.3,61.0,99,97,93,0.00,40.00,0,0,4,0.00
2013-10-2,83.0,68.2,54.0,65.0,61.6,54.0,100,82,52,0.00,40.00,8,2,15,0.00
2013-10-3,80.0,68.6,55.0,67.0,63.1,55.0,100,84,54,0.00,40.00,7,2,12,0.00
2013-10-4,83.0,70.1,55.0,70.0,64.1,55.0,100,83,53,0.00,40.00,6,2,9,0.00
2013-10-5,81.0,68.4,58.0,71.0,64.8,58.0,100,89,72,0.00,40.00,9,3,15,0.00
2013-10-6,-200.0,0.0,200.0,-99.9,-99.9,-99.9,0,0,100,0.00,40.00,9,5,15,0.00
2013-10-7,-200.0,0.0,200.0,-99.9,-99.9,-99.9,0,0,100,0.00,40.00,21,8,28,0.29
2013-10-8,-200.0,0.0,200.0,-99.9,-99.9,-99.9,0,0,100,0.00,40.00,6,2,18,0.00
2013-10-9,-200.0,0.0,200.0,-99.9,-99.9,-99.9,0,0,100,0.00,40.00,7,2,18,0.02
2013-10-10,64.0,60.8,57.0,63.0,59.8,55.0,98,97,94,0.00,40.00,16,6,20,0.62
2013-10-11,65.0,63.9,63.0,64.0,63.0,62.0,98,98,96,0.00,40.00,11,6,21,0.82
2013-10-12,68.0,61.2,61.0,62.0,56.9,-99.9,98,91,78,0.00,40.00,10,5,21,0.51
2013-10-13,67.0,61.8,55.0,61.0,55.0,53.0,97,79,63,0.00,40.00,11,5,23,0.00
2013-10-14,68.0,56.8,51.0,56.0,52.3,50.0,96,86,61,0.00,40.00,5,2,14,0.00
2013-10-15,71.0,57.4,49.0,55.0,50.1,48.0,98,80,44,0.00,40.00,5,1,13,0.00
2013-10-16,71.0,62.9,56.0,61.0,59.3,55.0,99,89,70,0.00,40.00,8,2,10,0.00
2013-10-17,75.0,66.6,62.0,64.0,62.2,61.0,98,87,66,0.00,40.00,10,5,13,0.00
2013-10-18,67.0,60.9,49.0,64.0,48.5,42.0,92,66,43,0.00,40.00,14,6,21,0.00
2013-10-19,63.0,52.6,42.0,63.0,46.7,-99.9,100,86,54,0.00,40.00,6,1,12,0.02
2013-10-20,62.0,52.3,42.0,52.0,39.7,33.0,93,65,36,0.00,40.00,11,4,20,0.00
2013-10-21,64.0,51.6,38.0,47.0,41.1,37.0,97,72,36,0.00,40.00,8,3,16,0.00
2013-10-22,67.0,58.2,48.0,53.0,49.4,45.0,96,75,46,0.00,40.00,10,4,16,0.00
2013-10-23,52.0,48.4,44.0,51.0,27.4,-99.9,100,78,61,0.00,40.00,5,2,11,0.21
2013-10-24,44.0,42.8,42.0,44.0,17.7,-99.9,100,79,72,0.00,40.00,9,4,13,0.00
2013-10-25,41.0,39.7,39.0,39.0,-9.0,-99.9,100,58,75,0.00,40.00,6,3,10,0.00
2013-10-26,57.0,41.8,31.0,40.0,30.5,-99.9,100,74,40,0.00,40.00,14,5,24,0.00
2013-10-27,59.0,49.9,37.0,40.0,36.1,31.0,97,62,36,0.00,40.00,15,6,21,0.00
2013-10-28,64.0,44.8,32.0,46.0,38.2,31.0,99,81,49,0.00,40.00,9,2,12,0.00
2013-10-29,60.0,48.8,43.0,52.0,45.5,41.0,100,90,61,0.00,40.00,7,2,11,0.00
2013-10-30,59.0,50.4,43.0,55.0,49.3,43.0,100,97,80,0.00,40.00,2,0,6,0.02
2013-10-31,69.0,58.6,48.0,63.0,55.7,48.0,100,91,71,0.00,40.00,10,3,16,0.01